Location: Gwatt
(46.7204°N, 7.6223°E)
Time: 02:28:05
(UTC+00:00)

Lacrosse 4 Rocket - Pass Details

Date: 18 September 2020
Orbit: 543 x 615 km, 68.0° (Epoch: 29 October)

Event Time Altitude Azimuth Distance (km) Brightness Sun altitude
Rises 20:58:51 0° 334° (NNW) 2,716 5.8 -32.4°
Reaches altitude 10° 21:01:11 10° 343° (NNW) 1,822 4.6 -32.6°
Enters shadow 21:02:08 16° 350° (N) 1,488 4.0 -32.8°
